Location: Rotheul
(50.2849°N, 11.2349°E)
Time: 23:28:34
(UTC+01:00)

ISS - Pass Details

Date: 12 November 2018
Orbit: 402 x 409 km, 51.6° (Epoch: 14 November)

Event Time Altitude Azimuth Distance (km) Brightness Sun altitude
Exits shadow 05:51:42 23° 236° (SW) 924 -2.4 -14.7°
Maximum altitude 05:52:23 24° 215° (SW) 876 -2.4 -14.6°
Drops below altitude 10° 05:55:06 10° 159° (SSE) 1,458 -0.6 -14.1°
Sets 05:57:24 0° 145° (SE) 2,316 0.8 -13.8°
